FENGYUN 1C DEB, 37906

Orbit data source: Space-Track

FENGYUN 1C DEB, 37906 is space debris in SSO originally from a launch on Mon, 10 May 1999 UTC launched from the Taiyaun Space Center, China (TSC). Fengyun 1C debris stems from the Chinese weather satellite Fengyun-1C, which was intentionally destroyed by a Chinese anti-satellite missile in 2007. This event dramatically increased the amount of space debris, with thousands of trackable fragments posing hazards to satellites and human spaceflight. The Fengyun 1C debris cloud has become a focal point in discussions about space sustainability and the need for international regulations to prevent the creation of new debris.

Loading next visibility...
Identifier
37906, 1999-025ENF
Orbit
SSO
Country
Flag of CNCN / PRC
Related business
Manufacturer
Unknown
Mission
Spacecraft
Bus & Motor
Unknown
Mass
Unknown
Launch date (UTC)
1999-05-10 (27 years ago)
Launch vehicle
Unknown
Launch site
Taiyaun Space Center, China (TSC)
Object type
Payload
Rocket body
Debris
Shape & HBR
Unknown shape, 0.1 m
Radar Cross Section
Small (<0.1 m²)

Expand to show TLE details & history
Last TLE update: 2 days ago

TLE from 2 days ago
0 FENGYUN 1C DEB
1 37906U 99025ENF 26144.89566887  .00000240  00000-0  24704-3 0  9990
2 37906  99.5782 193.2383 0161230 319.7739 223.3203 13.81001707617072
Epoch: 2026-05-24T21:29Z
TLE epoch observation values (Epoch: 2026-05-24T21:29:45.790Z)
Latitude
-1.94357°
Longitude
167.97985°
Altitude
1,050.42 km
Speed
7.283 km/s
True Right ascension
00h 51m 38s
True Declination
-1° 55' 57"
Sunlit
Object was in daylight at epoch
Visualization orbit readout
Latitude
Unknown
Longitude
Unknown
Altitude
Unknown
Speed
Unknown
Apparent Right ascension
Unknown
Apparent Declination
Unknown
Sunlit
N/A
Visualization observer readout
Local Sidereal Time
22:23:22
Azimuth
Unknown
Elevation
Unknown
Doppler factor
Unknown
Orbital elements
Apogee altitude
1,075.863 km
Perigee altitude
839.315 km
Semi-major axis
7,335.726 km
Eccentricity
0.01612
Inclination
99.5782°
RAAN
193.2383°
Arg. of periapsis
319.7739°
True anomaly
222.07116°
Mean anomaly
223.3203°
Eccentric anomaly
222.6939°
Mean motion
3.45445 °/min
Orbital period
104.21 mins
BSTAR
0.00024704
Loading maneuver chart data...
Computing Atmospheric mass density...

Documentation

Showing up to 5 results
|